weather.gov     
National Weather Service

Regional Weather Roundup
NWS Homepage
This page is being discontinued on March 12, 2014.
The same data is available at this site. Please update your bookmarks.
Thank you, and we apologize for the inconvenience.
Please send an email to SR-SRH.Webmaster@noaa.gov with any concerns.


Current Version
Previous Version:    01  02  03  04  05  06  07  08  09  10  11  12  13  14  15  16  17  18  19  20  21  22  23  24  
[Printable]
009
ASUS44 KSJT 301510
RWRSJT
WEST CENTRAL TEXAS REGIONAL WEATHER ROUNDUP
NATIONAL WEATHER SERVICE SAN ANGELO TX
1000 AM CDT WED JUL 30 2014

NOTE: "FAIR" INDICATES FEW OR NO CLOUDS BELOW 12,000 FEET WITH NO
SIGNIFICANT WEATHER AND/OR OBSTRUCTIONS TO VISIBILITY.

TXZ049-054-064>066-071>073-076>078-098-099-113-114-127-128-139-140-
154-155-168>170-301600
...LOCATIONS ACROSS WEST CENTRAL TEXAS...

CITY           SKY/WX    TMP DP  RH WIND       PRES   REMARKS
SAN ANGELO     MOSUNNY   84  60  44 S13G22    30.03S
ABILENE        CLOUDY    80  65  59 S10       30.04R
DYESS AFB      CLOUDY    79  66  63 S10       30.03R
JUNCTION       SUNNY     82  61  48 S10       30.07S
SWEETWATER     CLOUDY    80  63  56 S14       30.07S
BROWNWOOD      PTSUNNY   81  59  47 S12       30.05S
COLEMAN        MOSUNNY   82  57  42 S14       30.05F
SONORA         PTSUNNY   84  59  42 S15G22    30.11S
OZONA          FAIR      79  63  57 S16G26    30.08F
BRADY          SUNNY     84  57  39 S8        30.06S
$$

TEXAS PANHANDLE/OKLAHOMA PANHANDLE

CITY           SKY/WX    TMP DP  RH WIND       PRES   REMARKS
AMARILLO       CLOUDY    70  66  87 S6        30.10F
BORGER         CLOUDY    68  64  87 S10       30.08F
CANADIAN       HVY RAIN  66  65  96 S7        30.06S
DALHART        MOSUNNY   74  62  66 N16       30.14R
DUMAS          MOSUNNY   69  64  84 W5        30.11S
GUYMON         NOT AVBL
HEREFORD       PTSUNNY   72  68  86 SW7       30.12F
PAMPA          LGT RAIN  63  61  93 S9        30.10F
PERRYTON       CLOUDY    67  65  94 S18       30.06S
$$

SOUTHERN PANHANDLE/SOUTH PLAINS/ROLLING PLAINS

CITY           SKY/WX    TMP DP  RH WIND       PRES   REMARKS
LUBBOCK        SUNNY     77  61  57 S12       30.06S
SNYDER         PTSUNNY   76  65  68 S12       30.04S
CHILDRESS      CLOUDY    69  65  86 SE10      30.04R
SEMINOLE       MOSUNNY   82  51  33 SW8       30.06F
$$

PERMIAN BASIN

CITY           SKY/WX    TMP DP  RH WIND       PRES   REMARKS
MIDLAND        MOSUNNY   85  56  37 S17G26    30.03F
ODESSA         MOSUNNY   84  53  34 S18       30.04F
WINK           SUNNY     87  52  29 SE10      30.00F
$$

FAR WEST/SOUTHWEST MOUNTAINS/TRANS PECOS

CITY           SKY/WX    TMP DP  RH WIND       PRES   REMARKS
ALPINE         SUNNY     83  50  31 SW14      30.21F
DRYDEN           N/A     85  63  47 E8        30.03S
EL PASO        MOSUNNY   79  65  62 VRB3      30.11R
FORT STOCKTON  MOSUNNY   87  50  27 S6        30.04F
GUADALUPE PASS SUNNY     78  51  38 SW21      30.22R
MARFA          SUNNY     77  52  41 S8        30.22S
PECOS          SUNNY     86  50  28 CALM      30.00S
$$

DALLAS/FORT WORTH METROPLEX

CITY           SKY/WX    TMP DP  RH WIND       PRES   REMARKS
DFW AIRPORT    LGT RAIN  75  73  93 E10       30.06F FOG
FTW MEACHAM    CLOUDY    79  72  79 SE12      30.05S
DAL-EXECUTIVE  LGT RAIN  76  72  87 E9        30.08S FOG
GRAND PRAIRIE  SUNNY     75  70  83 E8        30.08F
ADDISON        NOT AVBL
MESQUITE       LGT RAIN  73  72  94 CALM      30.09F
LANCASTER      LGT RAIN  74  71  88 CALM      30.10S
$$

NORTH CENTRAL TEXAS

CITY           SKY/WX    TMP DP  RH WIND       PRES   REMARKS
SHRMAN/DENISON RAIN      72  69  90 SE6       30.10S
GAINESVILLE    DRIZZLE   71  70  96 E9        30.09F
BRIDGEPORT     CLOUDY    72  71  96 E3        30.08R
DENTON         LGT RAIN  74  72  93 SE6       30.07S
WAXAHACHIE     LGT RAIN  74  72  93 E5        30.10S
GRANBURY       PTSUNNY   82  69  64 SE7       30.05S
$$

WESTERN NORTH TEXAS

CITY           SKY/WX    TMP DP  RH WIND       PRES   REMARKS
WICHITA FALLS  LGT RAIN  71  69  93 SE15      30.02F
VERNON         CLOUDY    70  67  92 SE14      30.02F
BRECKENRIDGE   PTSUNNY   87  58  36 S15       30.02F HAZE
COMANCHE       CLOUDY    83  57  41 S12       30.05F
$$

CENTRAL AND SOUTH CENTRAL TEXAS

CITY           SKY/WX    TMP DP  RH WIND       PRES   REMARKS
AUSTIN/BERGSTM MOSUNNY   83  70  64 S10       30.05F
WACO           CLOUDY    81  70  69 S10       30.06R
HILLSBORO      LGT RAIN  80  70  70 SE9       30.07S
TEMPLE         CLOUDY    79  70  73 S13       30.06S
KILLEEN-GRAY   PTSUNNY   79  70  73 S9        30.06S
FORT HOOD      PTSUNNY   80  71  74 SE6       30.06S
GEORGETOWN     MOSUNNY   82  72  69 SW10      30.06S
LAGO VISTA     FAIR      80  68  66 S5        30.09R
SAN MARCOS     MOSUNNY   82  68  61 E13       30.07F
NEW BRAUNFELS  MOSUNNY   83  70  64 S6        30.05S
RANDOLPH AFB   MOSUNNY   80  69  68 SW9       30.07S
SAN ANTONIO    MOSUNNY   81  70  69 S10       30.07R
STINSON        MOSUNNY   81  70  69 S7        30.05R
PLEASANTON     NOT AVBL
LA GRANGE      MOSUNNY   83  76  78 S7        30.04S
GIDDINGS       MOSUNNY   81  72  73 CALM      30.10S
$$

EAST TEXAS

CITY           SKY/WX    TMP DP  RH WIND       PRES   REMARKS
PARIS          CLOUDY    73  64  73 S7        30.11F
CLARKSVILLE    CLOUDY    76  65  69 SE7       30.11S
TYLER          CLOUDY    76  67  73 SE8       30.10R
LONGVIEW       MOSUNNY   78  65  63 SE7       30.10S
PALESTINE      NOT AVBL
NACOGDOCHES    MOSUNNY   79  68  69 SE9       30.10S
$$

TEXAS HILL COUNTRY AND EDWARDS PLATEAU

CITY           SKY/WX    TMP DP  RH WIND       PRES   REMARKS
LLANO          MOSUNNY   82  64  54 S9        30.09S
HORSESHOE BAY  FAIR      80  67  63 S8        30.08R
KERRVILLE      SUNNY     79  67  66 S13       30.09S
FREDERICKSBRG  SUNNY     80  63  55 SW10      30.09S
ROCKSPRINGS    SUNNY     81  64  57 S14       30.12S
HONDO          MOSUNNY   79  71  76 S6        30.08S
UVALDE         SUNNY     81  70  70 SE7       30.06S
DEL RIO        SUNNY     83  67  58 SE13      30.01S
$$

SOUTHEAST TEXAS

CITY           SKY/WX    TMP DP  RH WIND       PRES   REMARKS
COLLEGE STN    SUNNY     82  73  74 S12       30.06S
CALDWELL       PTSUNNY   81  75  83 S12       30.09S HAZE
CROCKETT       SUNNY     81  73  78 SE5       30.11S
BRENHAM        SUNNY     81  74  79 SE5       30.06S
HUNTSVILLE     MOSUNNY   84  71  65 CALM      30.07F
CONROE         SUNNY     82  72  71 SE6       30.08R
HOUSTON BUSH   PTSUNNY   84  73  69 SE7       30.06R
HOUSTON HOBBY  MOSUNNY   86  72  62 SE6       30.05S
PERLAND        MOSUNNY   86  73  65 S3        30.07R
WHARTON        MOSUNNY   84  75  74 SE7       30.06S
$$

THE UPPER TEXAS COAST

CITY           SKY/WX    TMP DP  RH WIND       PRES   REMARKS
ORANGE         MOSUNNY   82  69  64 E8        30.09S
PORT ARTHUR    SUNNY     84  71  65 E10       30.07R
GALVESTON      MOSUNNY   88  73  61 E9        30.05S
ANGLETON       SUNNY     84  76  76 CALM      30.05S
BAY CITY       PTSUNNY   85  81  86 S6        30.05R
$$

TEXAS COASTAL BEND, RIO GRANDE PLAINS DEEP SOUTH TEXAS

CITY           SKY/WX    TMP DP  RH WIND       PRES   REMARKS
VICTORIA       MOSUNNY   87  74  64 S9        30.05R
BEEVILLE       FAIR      85  73  67 S13       30.04S
ROCKPORT       MOSUNNY   85  73  67 S9        30.04R
PORT ARANSAS   SUNNY     84  75  74 S10       30.04R
PORT LAVACA    MOSUNNY   84  74  71 SW8       30.04S
CORPUS CHRISTI MOSUNNY   85  72  65 S12       30.03S
KINGSVILLE NAS PTSUNNY   87  75  67 S13G21    30.02S
COTULLA        SUNNY     83  68  60 S8        30.02S
LAREDO         SUNNY     86  72  62 S10       30.03S
BROWNSVILLE    MOSUNNY   88  74  63 S15       30.02S
PORT ISABEL    MOSUNNY   89  72  56 S13G23    30.02S
HEBBRONVILLE   SUNNY     83  69  61 SE16      30.03S
MCALLEN        SUNNY     87  73  62 S14       30.01S
WESLACO        MOSUNNY   87  72  61 S12G20    30.01S
FALFURRIAS     SUNNY     73  73  99 S13       30.01F
EDINBURG       MOSUNNY   88  73  61 S13G18    30.01S
$$




U.S. Dept. of Commerce
NOAA National Weather Service
1325 East West Highway
Silver Spring, MD 20910
E-mail: w-nws.webmaster@noaa.gov
Page last modified: May 16, 2007
NATIONAL WEATHER SERVICE: for Safety, for Work, for Fun - FOR LIFE